THA449 WSSS-VTBS

Flight info

Callsign THA449
Flight time 1h 59m
Altitude 40000
Route VMR6A VMR B469 VPK M751 VKB M644 ALUMO Y12 ALEMI TUMGA1C
Aircraft A359/H-SDE2E3GHIJ3J4J5LM1ORWXY/LB1D1

Departure

Time 2026-05-05 14:35
Airport Singapore Changi Airport (WSSS)

Arrival

Time 2026-05-05 16:35
Airport Suvarnabhumi Airport (VTBS)
Time Latitude Longitude Altitude Speed Heading
2026-05-05 14:18 1.34264 103.98622 37 ft 0 kts 204°
2026-05-05 14:27 1.34265 103.98622 36 ft 1 kts 204°
2026-05-05 14:27 1.34274 103.98627 35 ft 1 kts 204°
2026-05-05 14:27 1.34286 103.98631 35 ft 2 kts 179°
2026-05-05 14:27 1.34300 103.98629 34 ft 2 kts 148°
2026-05-05 14:28 1.34311 103.98620 35 ft 3 kts 117°
2026-05-05 14:28 1.34312 103.98618 35 ft 0 kts 117°
2026-05-05 14:30 1.34300 103.98675 37 ft 17 kts 105°
2026-05-05 14:30 1.34236 103.98765 37 ft 13 kts 169°
2026-05-05 14:30 1.34158 103.98743 37 ft 13 kts 202°
2026-05-05 14:31 1.34066 103.98705 37 ft 15 kts 202°
2026-05-05 14:31 1.33959 103.98660 37 ft 18 kts 203°
2026-05-05 14:31 1.33838 103.98608 37 ft 20 kts 203°
2026-05-05 14:31 1.33704 103.98551 37 ft 22 kts 203°
2026-05-05 14:32 1.33556 103.98489 37 ft 24 kts 202°
2026-05-05 14:32 1.33395 103.98424 37 ft 26 kts 202°
2026-05-05 14:32 1.33226 103.98354 37 ft 27 kts 205°
2026-05-05 14:32 1.33048 103.98275 37 ft 29 kts 204°
2026-05-05 14:33 1.32892 103.98235 37 ft 22 kts 156°
2026-05-05 14:33 1.32842 103.98302 37 ft 0 kts 113°
2026-05-05 14:33 1.32834 103.98321 37 ft 6 kts 110°
2026-05-05 14:34 1.32825 103.98381 37 ft 11 kts 93°
2026-05-05 14:34 1.32847 103.98458 37 ft 13 kts 63°
2026-05-05 14:34 1.32961 103.98529 37 ft 29 kts 21°
2026-05-05 14:34 1.33247 103.98654 37 ft 74 kts 23°
2026-05-05 14:35 1.33921 103.98930 37 ft 135 kts 22°
2026-05-05 14:35 1.34937 103.99361 197 ft 172 kts 22°
2026-05-05 14:35 1.36036 103.99824 836 ft 175 kts 23°
2026-05-05 14:35 1.37239 104.00332 1282 ft 198 kts 23°
2026-05-05 14:36 1.38492 104.00863 2150 ft 192 kts 23°
2026-05-05 14:36 1.39691 104.01372 3139 ft 181 kts 23°
2026-05-05 14:36 1.40821 104.01851 3968 ft 173 kts 23°
2026-05-05 14:36 1.41913 104.02314 4638 ft 172 kts 23°
2026-05-05 14:37 1.43025 104.02785 5230 ft 173 kts 23°
2026-05-05 14:37 1.44130 104.03252 5837 ft 175 kts 23°
2026-05-05 14:37 1.45263 104.03731 6458 ft 177 kts 23°
2026-05-05 14:37 1.46411 104.04217 7081 ft 180 kts 23°
2026-05-05 14:38 1.47571 104.04680 7714 ft 182 kts 19°
2026-05-05 14:38 1.48820 104.04935 8356 ft 184 kts
2026-05-05 14:38 1.50101 104.04823 9020 ft 186 kts 346°
2026-05-05 14:38 1.51311 104.04351 9705 ft 187 kts 333°
2026-05-05 14:39 1.52457 104.03739 10283 ft 190 kts 331°
2026-05-05 14:39 1.53621 104.03093 10873 ft 192 kts 331°
2026-05-05 14:39 1.54802 104.02442 11480 ft 194 kts 332°
2026-05-05 14:39 1.55991 104.01793 12025 ft 202 kts 332°
2026-05-05 14:40 1.57303 104.01082 12344 ft 224 kts 332°
2026-05-05 14:40 1.58716 104.00318 12913 ft 233 kts 333°
2026-05-05 14:40 1.60139 103.99549 13627 ft 237 kts 333°
2026-05-05 14:40 1.61602 103.98759 14287 ft 240 kts 333°
2026-05-05 14:41 1.63087 103.97957 14952 ft 244 kts 333°
2026-05-05 14:41 1.64594 103.97144 15638 ft 247 kts 333°
2026-05-05 14:41 1.66102 103.96331 16282 ft 251 kts 333°
2026-05-05 14:41 1.67653 103.95494 16950 ft 254 kts 334°
2026-05-05 14:42 1.69226 103.94646 17610 ft 258 kts 334°
2026-05-05 14:42 1.70805 103.93794 18245 ft 262 kts 334°
2026-05-05 14:42 1.72420 103.92923 18824 ft 265 kts 334°
2026-05-05 14:42 1.74074 103.92070 19406 ft 268 kts 337°
2026-05-05 14:43 1.75828 103.91417 20005 ft 269 kts 347°
2026-05-05 14:43 1.77654 103.91068 20610 ft 270 kts 356°
2026-05-05 14:43 1.79539 103.90916 21211 ft 272 kts 359°
2026-05-05 14:43 1.81451 103.90802 21797 ft 275 kts 359°
2026-05-05 14:44 1.83352 103.90690 22373 ft 279 kts 359°
2026-05-05 14:44 1.85304 103.90572 22936 ft 282 kts 359°
2026-05-05 14:44 1.87283 103.90450 23481 ft 285 kts 359°
2026-05-05 14:44 1.89254 103.90326 23922 ft 289 kts 359°
2026-05-05 14:45 1.91274 103.90198 24354 ft 292 kts 359°
2026-05-05 14:45 1.93325 103.90068 24778 ft 296 kts 358°
2026-05-05 14:45 1.95396 103.89936 25201 ft 299 kts 358°
2026-05-05 14:45 1.97465 103.89805 25610 ft 302 kts 358°
2026-05-05 14:46 1.99581 103.89670 26005 ft 305 kts 358°
2026-05-05 14:46 2.01698 103.89535 26394 ft 309 kts 358°
2026-05-05 14:46 2.03860 103.89397 26779 ft 312 kts 358°
2026-05-05 14:46 2.06044 103.89258 27159 ft 315 kts 358°
2026-05-05 14:47 2.08252 103.89117 27547 ft 318 kts 358°
2026-05-05 14:47 2.10447 103.88978 27922 ft 321 kts 358°
2026-05-05 14:47 2.12700 103.88834 28287 ft 325 kts 358°
2026-05-05 14:47 2.14971 103.88689 28649 ft 328 kts 358°
2026-05-05 14:48 2.17240 103.88545 28989 ft 332 kts 358°
2026-05-05 14:48 2.19568 103.88396 29352 ft 336 kts 358°
2026-05-05 14:48 2.21924 103.88246 29684 ft 340 kts 358°
2026-05-05 14:48 2.24274 103.88097 30004 ft 344 kts 358°
2026-05-05 14:49 2.26678 103.87944 30288 ft 347 kts 358°
2026-05-05 14:49 2.29108 103.87789 30605 ft 350 kts 358°
2026-05-05 14:49 2.31553 103.87633 30897 ft 353 kts 358°
2026-05-05 14:49 2.34022 103.87475 31198 ft 356 kts 358°
2026-05-05 14:50 2.36473 103.87284 31488 ft 360 kts 355°
2026-05-05 14:50 2.38955 103.86831 31774 ft 364 kts 346°
2026-05-05 14:50 2.41377 103.86015 32057 ft 368 kts 339°
2026-05-05 14:50 2.43723 103.85030 32347 ft 372 kts 337°
2026-05-05 14:51 2.46102 103.83954 32608 ft 376 kts 336°
2026-05-05 14:51 2.48484 103.82841 32866 ft 379 kts 336°
2026-05-05 14:51 2.50884 103.81712 33141 ft 382 kts 336°
2026-05-05 14:51 2.53279 103.80592 33413 ft 385 kts 336°
2026-05-05 14:52 2.55730 103.79454 33691 ft 389 kts 336°
2026-05-05 14:52 2.58207 103.78312 33944 ft 392 kts 336°
2026-05-05 14:52 2.60705 103.77166 34171 ft 395 kts 336°
2026-05-05 14:52 2.63189 103.76030 34400 ft 398 kts 336°
2026-05-05 14:53 2.65721 103.74873 34644 ft 401 kts 336°
2026-05-05 14:53 2.68277 103.73705 34856 ft 404 kts 336°
2026-05-05 14:53 2.70848 103.72530 35094 ft 407 kts 336°
2026-05-05 14:53 2.73410 103.71360 35329 ft 409 kts 337°
2026-05-05 14:54 2.76032 103.70177 35538 ft 412 kts 337°
2026-05-05 14:54 2.78664 103.68999 35753 ft 415 kts 337°
2026-05-05 14:54 2.81281 103.67831 35979 ft 418 kts 337°
2026-05-05 14:54 2.83954 103.66639 36179 ft 420 kts 337°
2026-05-05 14:55 2.86641 103.65439 36403 ft 423 kts 337°
2026-05-05 14:55 2.89337 103.64233 36629 ft 425 kts 337°
2026-05-05 14:55 2.92016 103.63042 36822 ft 428 kts 338°
2026-05-05 14:55 2.94755 103.61825 37033 ft 430 kts 338°
2026-05-05 14:56 2.97502 103.60602 37217 ft 432 kts 338°
2026-05-05 14:56 3.00232 103.59386 37456 ft 434 kts 338°
2026-05-05 14:56 3.03014 103.58147 37664 ft 437 kts 338°
2026-05-05 14:56 3.05807 103.56903 37858 ft 439 kts 338°
2026-05-05 14:57 3.08584 103.55667 38049 ft 441 kts 338°
2026-05-05 14:57 3.11405 103.54411 38253 ft 444 kts 338°
2026-05-05 14:57 3.14242 103.53148 38432 ft 446 kts 338°
2026-05-05 14:57 3.17092 103.51883 38611 ft 448 kts 338°
2026-05-05 14:58 3.19920 103.50620 38784 ft 450 kts 338°
2026-05-05 14:58 3.22790 103.49328 38933 ft 452 kts 338°
2026-05-05 14:58 3.25666 103.48029 39084 ft 454 kts 338°
2026-05-05 14:58 3.27585 103.47162 39176 ft 455 kts 337°
2026-05-05 14:59 3.31425 103.45428 39440 ft 456 kts 337°
2026-05-05 14:59 3.33388 103.44543 39575 ft 457 kts 337°
2026-05-05 14:59 3.36257 103.43250 39760 ft 458 kts 338°
2026-05-05 14:59 3.39176 103.41937 39853 ft 461 kts 338°
2026-05-05 15:00 3.45168 103.39459 39854 ft 471 kts 340°
2026-05-05 15:00 3.51378 103.37058 39856 ft 482 kts 340°
2026-05-05 15:01 3.57660 103.34609 39851 ft 490 kts 340°
2026-05-05 15:01 3.64034 103.32087 39853 ft 490 kts 340°
2026-05-05 15:02 3.70351 103.29574 39856 ft 490 kts 340°
2026-05-05 15:02 3.76705 103.27045 39856 ft 490 kts 340°
2026-05-05 15:03 3.83061 103.24517 39856 ft 490 kts 340°
2026-05-05 15:03 3.89387 103.22002 39854 ft 490 kts 340°
2026-05-05 15:04 3.95712 103.19488 39851 ft 490 kts 340°
2026-05-05 15:04 4.02081 103.16955 39855 ft 490 kts 340°
2026-05-05 15:05 4.11585 103.13174 39848 ft 490 kts 340°
2026-05-05 15:06 4.17913 103.10656 39857 ft 492 kts 340°
2026-05-05 15:06 4.24303 103.08113 39857 ft 493 kts 340°
2026-05-05 15:07 4.30659 103.05583 39867 ft 493 kts 340°
2026-05-05 15:07 4.37045 103.03041 39870 ft 493 kts 340°
2026-05-05 15:08 4.43392 103.00514 39870 ft 493 kts 340°
2026-05-05 15:08 4.49787 102.97967 39881 ft 493 kts 340°
2026-05-05 15:09 4.56142 102.95436 39880 ft 493 kts 340°
2026-05-05 15:09 4.62543 102.92886 39884 ft 493 kts 340°
2026-05-05 15:10 4.68896 102.90354 39885 ft 493 kts 340°
2026-05-05 15:10 4.75293 102.87804 39883 ft 493 kts 340°
2026-05-05 15:11 4.81649 102.85271 39887 ft 493 kts 340°
2026-05-05 15:11 4.88039 102.82725 39885 ft 493 kts 340°
2026-05-05 15:12 4.94390 102.80200 39885 ft 493 kts 340°
2026-05-05 15:12 5.00784 102.77659 39888 ft 493 kts 340°
2026-05-05 15:13 5.07149 102.75129 39886 ft 494 kts 340°
2026-05-05 15:13 5.13559 102.72578 39887 ft 494 kts 340°
2026-05-05 15:14 5.19938 102.70041 39887 ft 494 kts 340°
2026-05-05 15:14 5.26346 102.67476 39887 ft 494 kts 339°
2026-05-05 15:15 5.32714 102.64894 39891 ft 495 kts 339°
2026-05-05 15:15 5.39082 102.62328 39893 ft 494 kts 340°
2026-05-05 15:16 5.45478 102.59774 39894 ft 494 kts 340°
2026-05-05 15:16 5.51854 102.57230 39889 ft 494 kts 340°
2026-05-05 15:17 5.58272 102.54675 39889 ft 494 kts 340°
2026-05-05 15:17 5.64618 102.52136 39888 ft 494 kts 340°
2026-05-05 15:18 5.71013 102.49574 39887 ft 493 kts 340°
2026-05-05 15:18 5.77370 102.47029 39884 ft 493 kts 340°
2026-05-05 15:19 5.83767 102.44469 39882 ft 493 kts 340°
2026-05-05 15:19 5.90130 102.41923 39882 ft 493 kts 340°
2026-05-05 15:20 5.96491 102.39377 39883 ft 494 kts 340°
2026-05-05 15:20 6.02892 102.36814 39883 ft 493 kts 340°
2026-05-05 15:21 6.09241 102.34271 39882 ft 493 kts 340°
2026-05-05 15:21 6.15677 102.31859 39885 ft 492 kts 346°
2026-05-05 15:22 6.22363 102.30605 39885 ft 490 kts 353°
2026-05-05 15:22 6.29136 102.29686 39884 ft 490 kts 354°
2026-05-05 15:23 6.35865 102.28880 39885 ft 489 kts 355°
2026-05-05 15:23 6.42651 102.28134 39886 ft 489 kts 355°
2026-05-05 15:24 6.49392 102.27379 39888 ft 489 kts 355°
2026-05-05 15:24 6.56132 102.26608 39889 ft 489 kts 355°
2026-05-05 15:25 6.62898 102.25826 39889 ft 489 kts 354°
2026-05-05 15:25 6.69676 102.25043 39892 ft 489 kts 354°
2026-05-05 15:26 6.76421 102.24264 39893 ft 490 kts 354°
2026-05-05 15:26 6.83182 102.23483 39892 ft 490 kts 354°
2026-05-05 15:27 6.89975 102.22698 39891 ft 490 kts 355°
2026-05-05 15:27 6.96717 102.21920 39892 ft 490 kts 355°
2026-05-05 15:28 7.03504 102.21135 39895 ft 490 kts 355°
2026-05-05 15:28 7.10300 102.20350 39895 ft 492 kts 354°
2026-05-05 15:29 7.17096 102.19565 39894 ft 493 kts 354°
2026-05-05 15:29 7.23901 102.18777 39892 ft 494 kts 354°
2026-05-05 15:30 7.30753 102.17984 39894 ft 494 kts 354°
2026-05-05 15:30 7.37553 102.17197 39895 ft 494 kts 354°
2026-05-05 15:31 7.44358 102.16409 39895 ft 494 kts 354°
2026-05-05 15:31 7.51200 102.15618 39894 ft 492 kts 354°
2026-05-05 15:32 7.58006 102.14829 39893 ft 492 kts 354°
2026-05-05 15:32 7.64787 102.14043 39895 ft 492 kts 354°
2026-05-05 15:33 7.71607 102.13252 39895 ft 492 kts 354°
2026-05-05 15:33 7.78392 102.12465 39895 ft 492 kts 354°
2026-05-05 15:34 7.85181 102.11678 39895 ft 492 kts 354°
2026-05-05 15:34 7.91996 102.10887 39894 ft 492 kts 354°
2026-05-05 15:35 7.98776 102.10100 39895 ft 492 kts 354°
2026-05-05 15:35 8.05600 102.09334 39895 ft 492 kts 355°
2026-05-05 15:36 8.12397 102.08742 39897 ft 492 kts 355°
2026-05-05 15:36 8.19238 102.08184 39898 ft 491 kts 355°
2026-05-05 15:37 8.26000 102.07611 39898 ft 489 kts 355°
2026-05-05 15:37 8.32798 102.07017 39898 ft 489 kts 355°
2026-05-05 15:38 8.39546 102.06424 39895 ft 489 kts 355°
2026-05-05 15:38 8.46352 102.05825 39897 ft 489 kts 355°
2026-05-05 15:39 8.53116 102.05231 39896 ft 489 kts 355°
2026-05-05 15:39 8.59854 102.04639 39897 ft 486 kts 355°
2026-05-05 15:40 8.66618 102.04043 39899 ft 485 kts 356°
2026-05-05 15:40 8.73311 102.03454 39898 ft 484 kts 356°
2026-05-05 15:41 8.80043 102.02863 39896 ft 483 kts 356°
2026-05-05 15:41 8.86723 102.02276 39898 ft 484 kts 356°
2026-05-05 15:42 8.93446 102.01685 39898 ft 485 kts 355°
2026-05-05 15:42 9.00151 102.01095 39897 ft 486 kts 356°
2026-05-05 15:43 9.06915 102.00499 39897 ft 486 kts 356°
2026-05-05 15:43 9.13624 101.99907 39830 ft 489 kts 356°
2026-05-05 15:44 9.20438 101.99306 39896 ft 488 kts 356°
2026-05-05 15:44 9.27155 101.98713 39889 ft 486 kts 355°
2026-05-05 15:45 9.33936 101.98124 39901 ft 487 kts 356°
2026-05-05 15:45 9.40651 101.97538 39901 ft 487 kts 356°
2026-05-05 15:46 9.47384 101.96949 39900 ft 487 kts 356°
2026-05-05 15:46 9.54155 101.96357 39900 ft 487 kts 356°
2026-05-05 15:47 9.60880 101.95770 39897 ft 487 kts 355°
2026-05-05 15:47 9.66499 101.95279 39898 ft 485 kts 355°
2026-05-05 15:48 9.73183 101.94695 39898 ft 483 kts 355°
2026-05-05 15:48 9.79911 101.94107 39897 ft 482 kts 355°
2026-05-05 15:49 9.86581 101.93524 39901 ft 483 kts 355°
2026-05-05 15:49 9.93295 101.92936 39902 ft 482 kts 355°
2026-05-05 15:50 9.99956 101.92354 39907 ft 483 kts 355°
2026-05-05 15:50 10.06658 101.91767 39905 ft 481 kts 355°
2026-05-05 15:51 10.13299 101.91185 39904 ft 480 kts 355°
2026-05-05 15:51 10.19969 101.90600 39903 ft 480 kts 355°
2026-05-05 15:52 10.26643 101.90015 39904 ft 480 kts 355°
2026-05-05 15:52 10.33256 101.89435 39904 ft 481 kts 355°
2026-05-05 15:53 10.39935 101.88849 39902 ft 481 kts 355°
2026-05-05 15:53 10.46582 101.88265 39903 ft 482 kts 355°
2026-05-05 15:54 10.53278 101.87677 39907 ft 482 kts 355°
2026-05-05 15:54 10.59936 101.87092 39909 ft 482 kts 355°
2026-05-05 15:55 10.66632 101.86504 39907 ft 482 kts 355°
2026-05-05 15:55 10.73330 101.85916 39907 ft 482 kts 354°
2026-05-05 15:56 10.79920 101.84818 39903 ft 482 kts 347°
2026-05-05 15:56 10.86499 101.83346 39903 ft 483 kts 347°
2026-05-05 15:57 10.93039 101.81860 39904 ft 483 kts 347°
2026-05-05 15:57 10.99609 101.80361 39906 ft 482 kts 347°
2026-05-05 15:58 11.06131 101.78871 39907 ft 482 kts 347°
2026-05-05 15:58 11.12701 101.77369 39906 ft 482 kts 346°
2026-05-05 15:59 11.19221 101.75878 39905 ft 481 kts 346°
2026-05-05 15:59 11.25747 101.74384 39906 ft 481 kts 346°
2026-05-05 16:00 11.32306 101.72882 39906 ft 481 kts 346°
2026-05-05 16:00 11.38810 101.71393 39911 ft 481 kts 346°
2026-05-05 16:01 11.45360 101.69891 39910 ft 481 kts 346°
2026-05-05 16:01 11.51916 101.68388 39909 ft 481 kts 346°
2026-05-05 16:02 11.58421 101.66896 39909 ft 481 kts 346°
2026-05-05 16:02 11.64965 101.65394 39908 ft 481 kts 346°
2026-05-05 16:03 11.71475 101.63899 39909 ft 481 kts 346°
2026-05-05 16:03 11.77982 101.62404 39908 ft 481 kts 346°
2026-05-05 16:04 11.84542 101.60896 39909 ft 482 kts 346°
2026-05-05 16:04 11.91082 101.59393 39909 ft 483 kts 346°
2026-05-05 16:05 11.97667 101.57878 39907 ft 484 kts 346°
2026-05-05 16:05 12.04205 101.56373 39909 ft 484 kts 346°
2026-05-05 16:06 12.10783 101.54858 39904 ft 484 kts 346°
2026-05-05 16:06 12.17321 101.53351 39901 ft 484 kts 346°
2026-05-05 16:07 12.23916 101.51831 39898 ft 484 kts 346°
2026-05-05 16:07 12.30487 101.50316 39473 ft 483 kts 346°
2026-05-05 16:07 12.33600 101.49597 38820 ft 484 kts 346°
2026-05-05 16:08 12.36272 101.48980 38225 ft 485 kts 346°
2026-05-05 16:08 12.39529 101.48228 37510 ft 485 kts 346°
2026-05-05 16:08 12.42824 101.47467 36827 ft 484 kts 346°
2026-05-05 16:08 12.46113 101.46708 36137 ft 484 kts 346°
2026-05-05 16:09 12.49387 101.45951 35423 ft 485 kts 346°
2026-05-05 16:09 12.52684 101.45189 34692 ft 486 kts 347°
2026-05-05 16:09 12.56002 101.44423 33880 ft 489 kts 347°
2026-05-05 16:09 12.59305 101.43659 32942 ft 492 kts 347°
2026-05-05 16:10 12.62657 101.42858 31975 ft 496 kts 345°
2026-05-05 16:10 12.65985 101.41836 31039 ft 499 kts 342°
2026-05-05 16:10 12.69292 101.40760 30363 ft 496 kts 342°
2026-05-05 16:10 12.72540 101.39716 29683 ft 493 kts 342°
2026-05-05 16:11 12.75814 101.38678 28993 ft 488 kts 343°
2026-05-05 16:11 12.85414 101.35675 27068 ft 475 kts 343°
2026-05-05 16:12 12.88574 101.34692 26455 ft 471 kts 343°
2026-05-05 16:12 12.94814 101.32751 25200 ft 463 kts 343°
2026-05-05 16:13 13.03943 101.29912 23324 ft 453 kts 343°
2026-05-05 16:13 13.06951 101.28976 22644 ft 448 kts 343°
2026-05-05 16:13 13.09925 101.28050 22008 ft 443 kts 343°
2026-05-05 16:14 13.15723 101.26245 20779 ft 432 kts 343°
2026-05-05 16:14 13.21427 101.24468 19556 ft 424 kts 343°
2026-05-05 16:15 13.26896 101.22764 19101 ft 397 kts 343°
2026-05-05 16:15 13.31982 101.21110 18631 ft 375 kts 338°
2026-05-05 16:16 13.35736 101.17553 17591 ft 375 kts 296°
2026-05-05 16:16 13.37102 101.12382 16911 ft 375 kts 282°
2026-05-05 16:17 13.38161 101.07164 16232 ft 371 kts 282°
2026-05-05 16:17 13.38687 101.04614 15900 ft 369 kts 282°
2026-05-05 16:18 13.39757 100.99473 15222 ft 365 kts 282°
2026-05-05 16:18 13.40288 100.96932 14887 ft 363 kts 282°
2026-05-05 16:18 13.41392 100.91920 14218 ft 359 kts 287°
2026-05-05 16:19 13.42520 100.89650 13899 ft 357 kts 308°
2026-05-05 16:19 13.44353 100.87954 13562 ft 354 kts 326°
2026-05-05 16:19 13.48471 100.85254 13031 ft 340 kts 328°
2026-05-05 16:20 13.52317 100.82765 12570 ft 318 kts 328°
2026-05-05 16:20 13.56348 100.81351 11955 ft 306 kts
2026-05-05 16:21 13.60482 100.82314 11275 ft 304 kts 16°
2026-05-05 16:22 13.66542 100.84027 10446 ft 300 kts 15°
2026-05-05 16:22 13.70570 100.85133 9895 ft 297 kts 15°
2026-05-05 16:23 13.74489 100.86207 9462 ft 282 kts 15°
2026-05-05 16:23 13.76359 100.86719 9296 ft 272 kts 15°
2026-05-05 16:23 13.79905 100.87691 8801 ft 259 kts 15°
2026-05-05 16:24 13.81644 100.88168 8552 ft 257 kts 15°
2026-05-05 16:24 13.83374 100.88643 8310 ft 257 kts 15°
2026-05-05 16:24 13.86825 100.89591 7662 ft 255 kts 15°
2026-05-05 16:25 13.88540 100.90061 7409 ft 254 kts 15°
2026-05-05 16:25 13.91931 100.90991 6960 ft 252 kts 16°
2026-05-05 16:25 13.93627 100.91461 6721 ft 251 kts 15°
2026-05-05 16:26 13.96992 100.92294 6253 ft 250 kts
2026-05-05 16:26 13.99987 100.90864 5789 ft 248 kts 302°
2026-05-05 16:27 14.00619 100.89219 5584 ft 245 kts 284°
2026-05-05 16:27 14.00976 100.87560 5438 ft 235 kts 278°
2026-05-05 16:27 14.00796 100.85941 5252 ft 225 kts 242°
2026-05-05 16:27 13.99790 100.84779 5117 ft 213 kts 214°
2026-05-05 16:28 13.98513 100.84048 4936 ft 207 kts 202°
2026-05-05 16:28 13.97194 100.83535 4697 ft 203 kts 197°
2026-05-05 16:28 13.95835 100.83142 4458 ft 201 kts 193°
2026-05-05 16:28 13.94486 100.82786 4218 ft 199 kts 193°
2026-05-05 16:29 13.93157 100.82438 4038 ft 196 kts 193°
2026-05-05 16:29 13.91827 100.82090 3821 ft 197 kts 193°
2026-05-05 16:29 13.90513 100.81745 3656 ft 197 kts 193°
2026-05-05 16:29 13.89186 100.81395 3468 ft 196 kts 193°
2026-05-05 16:30 13.87861 100.81044 3298 ft 196 kts 193°
2026-05-05 16:30 13.86545 100.80695 3116 ft 195 kts 193°
2026-05-05 16:30 13.85229 100.80346 2932 ft 195 kts 193°
2026-05-05 16:30 13.83933 100.80003 2724 ft 194 kts 193°
2026-05-05 16:31 13.82628 100.79658 2553 ft 192 kts 193°
2026-05-05 16:31 13.81334 100.79316 2365 ft 190 kts 193°
2026-05-05 16:31 13.80079 100.78984 2119 ft 179 kts 193°
2026-05-05 16:31 13.78928 100.78679 1914 ft 166 kts 193°
2026-05-05 16:32 13.77843 100.78392 1709 ft 156 kts 193°
2026-05-05 16:32 13.76815 100.78121 1502 ft 149 kts 193°
2026-05-05 16:32 13.75833 100.77861 1308 ft 141 kts 193°
2026-05-05 16:32 13.74918 100.77620 1138 ft 136 kts 193°
2026-05-05 16:33 13.74004 100.77379 972 ft 135 kts 193°
2026-05-05 16:33 13.73092 100.77137 813 ft 135 kts 194°
2026-05-05 16:33 13.72198 100.76892 707 ft 134 kts 195°
2026-05-05 16:33 13.71288 100.76645 596 ft 135 kts 194°
2026-05-05 16:34 13.70376 100.76417 354 ft 135 kts 193°
2026-05-05 16:34 13.69485 100.76195 156 ft 132 kts 194°
2026-05-05 16:34 13.68597 100.75956 49 ft 132 kts 195°
2026-05-05 16:34 13.67716 100.75726 20 ft 124 kts 194°
2026-05-05 16:35 13.67199 100.75589 21 ft 108 kts 194°
2026-05-05 16:35 13.66722 100.75395 22 ft 22 kts 216°
2026-05-05 16:35 13.66703 100.75380 23 ft 4 kts 217°
2026-05-05 16:35 13.66661 100.75337 23 ft 9 kts 242°
2026-05-05 16:36 13.66667 100.75281 23 ft 5 kts 310°
2026-05-05 16:36 13.66699 100.75271 23 ft 6 kts 349°
2026-05-05 16:36 13.66738 100.75276 19 ft 7 kts
2026-05-05 16:36 13.66801 100.75291 21 ft 11 kts 13°
2026-05-05 16:37 13.66885 100.75313 21 ft 14 kts 14°
2026-05-05 16:37 13.66993 100.75342 20 ft 18 kts 14°
2026-05-05 16:37 13.67122 100.75376 23 ft 21 kts 14°
2026-05-05 16:37 13.67271 100.75416 21 ft 24 kts 14°
2026-05-05 16:38 13.67440 100.75460 22 ft 26 kts 14°
2026-05-05 16:38 13.67625 100.75508 20 ft 29 kts 14°
2026-05-05 16:38 13.67829 100.75561 23 ft 31 kts 14°
2026-05-05 16:38 13.68036 100.75616 20 ft 13 kts 14°
2026-05-05 16:39 13.68066 100.75616 22 ft 12 kts 351°
2026-05-05 16:39 13.68130 100.75560 24 ft 13 kts 327°
2026-05-05 16:39 13.68220 100.75547 21 ft 13 kts 335°
2026-05-05 16:39 13.68264 100.75458 19 ft 15 kts 285°
2026-05-05 16:40 13.68295 100.75341 20 ft 18 kts 284°
2026-05-05 16:40 13.68312 100.75269 22 ft 0 kts 280°
2026-05-05 16:40 13.68297 100.75236 24 ft 6 kts 210°
2026-05-05 16:40 13.68249 100.75223 21 ft 9 kts 194°
2026-05-05 16:41 13.68225 100.75217 24 ft 0 kts 194°